Location: Brabourne
(51.1333°N, 1.0000°E)
Time: 19:50:43
(UTC+00:00)

IRS-1D - Pass Details

Date: 20 October 2021
Orbit: 739 x 817 km, 98.6° (Epoch: 04 December)

Event Time Altitude Azimuth Distance (km) Brightness Sun altitude
Rises 02:44:35 0° 14° (NNE) 3,293 7.3 -34.7°
Reaches altitude 10° 02:46:56 10° 14° (NNE) 2,348 6.5 -34.4°
Enters shadow 02:49:15 27° 13° (NNE) 1,460 5.2 -34.1°
